Weather History for Trenton, NJ

Change the Weather History Date:

Sunday, December 1, 2013

  Actual Average Record
Temperature  
Mean Temperature 39 °F 40 °F  
Max Temperature 49 °F 48 °F 71 °F (2006)
Min Temperature 29 °F 33 °F 11 °F (1936)
Degree Days  
Heating Degree Days 26 25  
Month to date heating degree days 26 25  
Since 1 July heating degree days 1013 1001  
Cooling Degree Days 0 0  
Month to date cooling degree days 0 0  
Year to date cooling degree days 1077 965  
Moisture  
Dew Point 28 °F    
Average Humidity 66    
Maximum Humidity 85    
Minimum Humidity 46    
Precipitation  
Precipitation 0.00 in 0.15 in 1.56 in (2010)
Month to date precipitation 0.00 0.15  
Year to date precipitation 38.81 42.89  
Sea Level Pressure  
Sea Level Pressure 30.18 in    
Wind  
Wind Speed 4 mph (NW)    
Max Wind Speed 10 mph    
Max Gust Speed 12 mph    
Visibility 10 miles    
Events      
T = Trace of Precipitation, MM = Missing Value Source: NWS Daily Summary

Daily Weather History Graph

Daily Weather History Graph

Search for Another Location

Airport:

Trip Planner

Search our weather history database for the weather conditions in past years. The results will help you decide how hot, cold, wet, or windy it might be!

Date:

Astronomy

Dec. 01, 2013 Rise Set
Actual Time 7:02 AM EST 4:33 PM EST
Civil Twilight 6:32 AM EST 5:03 PM EST
Nautical Twilight 5:58 AM EST 5:37 PM EST
Astronomical Twilight 5:26 AM EST 6:10 PM EST
Moon 5:18 AM EST (12/1) 3:41 PM EST (12/1)
Length of Visible Light 10h 31m
Length of Day
9h 30m
Waning Crescent, 2% of the Moon is Illuminated
Dec 1
Waning Crescent
Dec 2
New
Dec 9
First Quarter
Dec 17
Full
Dec 25
Last Quarter

Hourly Weather History & Observations

Time (EST) Temp. Windchill Dew Point Humidity Pressure Visibility Wind Dir Wind Speed Gust Speed Precip Events Conditions
12:44 AM 33.8 °F 28.6 °F 26.6 °F 75% 30.34 in 10.0 mi NNW 5.8 mph - N/A   Mostly Cloudy
12:53 AM 33.1 °F 27.7 °F 27.0 °F 78% 30.33 in 10.0 mi NNW 5.8 mph - N/A   Mostly Cloudy
1:32 AM 32.0 °F 27.5 °F 26.6 °F 80% 30.33 in 10.0 mi NNW 4.6 mph - N/A   Scattered Clouds
1:53 AM 33.1 °F 28.7 °F 26.1 °F 75% 30.32 in 10.0 mi NNW 4.6 mph - N/A   Mostly Cloudy
2:05 AM 33.8 °F 28.6 °F 26.6 °F 75% 30.32 in 10.0 mi NNW 5.8 mph - N/A   Overcast
2:50 AM 33.8 °F 27.7 °F 26.6 °F 75% 30.31 in 10.0 mi North 6.9 mph - N/A   Mostly Cloudy
2:53 AM 33.1 °F 26.9 °F 26.1 °F 75% 30.30 in 10.0 mi North 6.9 mph - N/A   Mostly Cloudy
3:28 AM 33.8 °F 27.7 °F 26.6 °F 75% 30.29 in 10.0 mi NNW 6.9 mph - N/A   Mostly Cloudy
3:53 AM 33.1 °F 26.9 °F 27.0 °F 78% 30.27 in 10.0 mi NNW 6.9 mph - N/A   Overcast
4:53 AM 32.0 °F - 26.1 °F 79% 30.24 in 10.0 mi Calm Calm - N/A   Scattered Clouds
5:53 AM 30.0 °F 24.1 °F 25.0 °F 82% 30.23 in 10.0 mi NW 5.8 mph - N/A   Clear
6:53 AM 30.0 °F 21.7 °F 26.1 °F 85% 30.23 in 10.0 mi NW 9.2 mph - N/A   Clear
7:53 AM 30.9 °F 23.5 °F 27.0 °F 85% 30.23 in 10.0 mi NW 8.1 mph - N/A   Clear
8:53 AM 36.0 °F 33.3 °F 28.9 °F 76% 30.21 in 10.0 mi NNW 3.5 mph - N/A   Clear
9:53 AM 41.0 °F 35.2 °F 30.0 °F 65% 30.20 in 10.0 mi NW 9.2 mph - N/A   Scattered Clouds
10:53 AM 43.0 °F 41.3 °F 30.9 °F 62% 30.18 in 10.0 mi Variable 3.5 mph - N/A   Clear
11:53 AM 45.0 °F 41.2 °F 30.0 °F 56% 30.14 in 10.0 mi SW 6.9 mph - N/A   Clear
12:53 PM 46.0 °F 44.8 °F 28.9 °F 51% 30.11 in 10.0 mi Variable 3.5 mph - N/A   Clear
1:53 PM 48.0 °F - 28.9 °F 48% 30.07 in 9.0 mi SW 5.8 mph - N/A   Partly Cloudy
2:53 PM 48.0 °F - 28.0 °F 46% 30.07 in 8.0 mi WNW 8.1 mph - N/A   Overcast
3:53 PM 46.9 °F - 28.0 °F 48% 30.06 in 10.0 mi West 3.5 mph - N/A   Overcast
4:53 PM 46.0 °F - 28.0 °F 50% 30.06 in 10.0 mi Calm Calm - N/A   Overcast
5:53 PM 44.1 °F - 28.0 °F 53% 30.05 in 10.0 mi Calm Calm - N/A   Overcast
6:53 PM 44.1 °F - 27.0 °F 51% 30.05 in 10.0 mi Calm Calm - N/A   Overcast
7:53 PM 41.0 °F - 28.9 °F 62% 30.05 in 10.0 mi Calm Calm - N/A   Overcast
8:53 PM 42.1 °F - 28.0 °F 58% 30.03 in 10.0 mi Calm Calm - N/A   Overcast
9:53 PM 41.0 °F - 28.9 °F 62% 30.03 in 9.0 mi Calm Calm - N/A   Overcast
10:53 PM 39.9 °F 36.7 °F 28.9 °F 65% 30.02 in 9.0 mi NW 4.6 mph - N/A   Overcast
11:53 PM 39.9 °F 37.8 °F 28.9 °F 65% 30.02 in 8.0 mi West 3.5 mph - N/A   Overcast